When you browse on this site, cookies collect data to enhance your experience and personalize the content and advertising you see.
Visit our Privacy Policy to learn more. By continuing to use the site, you agree to this use of cookies and data.
  • In Deutschland
  • Länderverzeichnis
  • Für 7 Tage
  • Wassertemperatur
  • Wetterkarte
  • Widgets
  • user-avatar
    Anmelden

    Stündliche Wetter Barannikova

    Heute, 16 Oktober, Mittwoch

    Zeit Temperatur Niederschläge Wind Luftdruck Luftfeuchtigkeit
    00:00 +3°C° 0 mm 2 m/S 745 mmHg 92%
    01:00 +2°C° 0 mm 3 m/S 745 mmHg 93%
    02:00 +1°C° 0 mm 3 m/S 745 mmHg 93%
    03:00 +1°C° 0 mm 3 m/S 745 mmHg 92%
    04:00 +1°C° 0 mm 3 m/S 746 mmHg 92%
    05:00 0°C° 0 mm 3 m/S 746 mmHg 92%
    06:00 -1°C° 0 mm 4 m/S 746 mmHg 92%
    07:00 -1°C° 0 mm 4 m/S 746 mmHg 91%
    08:00 -1°C° 0 mm 4 m/S 747 mmHg 93%
    09:00 0°C° 0 mm 4 m/S 747 mmHg 94%
    10:00 0°C° 0 mm 5 m/S 748 mmHg 95%
    11:00 0°C° 0.2 mm 5 m/S 748 mmHg 95%
    12:00 0°C° 0.2 mm 5 m/S 748 mmHg 95%
    13:00 +1°C° 0.2 mm 6 m/S 749 mmHg 95%
    14:00 +1°C° 0 mm 6 m/S 749 mmHg 91%
    15:00 +1°C° 0 mm 5 m/S 750 mmHg 87%
    16:00 +1°C° 0 mm 5 m/S 751 mmHg 83%
    17:00 +1°C° 0 mm 5 m/S 751 mmHg 84%
    18:00 +1°C° 0 mm 5 m/S 752 mmHg 85%
    19:00 0°C° 0 mm 4 m/S 752 mmHg 86%
    20:00 0°C° 0 mm 4 m/S 753 mmHg 87%
    21:00 0°C° 0 mm 5 m/S 753 mmHg 88%
    22:00 0°C° 0 mm 5 m/S 754 mmHg 89%
    23:00 0°C° 0.1 mm 5 m/S 754 mmHg 89%

    Morgen, 17 Oktober, Donnerstag

    Zeit Temperatur Niederschläge Wind Luftdruck Luftfeuchtigkeit
    00:00 -1°C° 0.1 mm 5 m/S 754 mmHg 88%
    01:00 -1°C° 0.1 mm 5 m/S 754 mmHg 88%
    02:00 -1°C° 0 mm 5 m/S 755 mmHg 87%
    03:00 -2°C° 0 mm 5 m/S 756 mmHg 85%
    04:00 -2°C° 0 mm 4 m/S 757 mmHg 84%
    05:00 -2°C° 0 mm 4 m/S 757 mmHg 85%
    06:00 -2°C° 0 mm 4 m/S 757 mmHg 85%
    07:00 -2°C° 0 mm 4 m/S 757 mmHg 85%
    08:00 -1°C° 0 mm 4 m/S 757 mmHg 80%
    09:00 0°C° 0 mm 4 m/S 758 mmHg 76%
    10:00 +1°C° 0 mm 5 m/S 758 mmHg 71%
    11:00 +1°C° 0 mm 5 m/S 758 mmHg 70%
    12:00 +1°C° 0 mm 4 m/S 758 mmHg 68%
    13:00 +1°C° 0 mm 4 m/S 758 mmHg 67%
    14:00 +1°C° 0 mm 4 m/S 758 mmHg 68%
    15:00 +1°C° 0 mm 4 m/S 758 mmHg 69%
    16:00 +1°C° 0 mm 3 m/S 758 mmHg 70%
    17:00 +1°C° 0 mm 3 m/S 758 mmHg 72%
    18:00 +1°C° 0 mm 3 m/S 758 mmHg 74%
    19:00 +1°C° 0 mm 2 m/S 758 mmHg 76%
    20:00 +1°C° 0 mm 2 m/S 758 mmHg 79%
    21:00 +1°C° 0 mm 2 m/S 758 mmHg 81%
    22:00 +1°C° 0 mm 2 m/S 757 mmHg 84%
    23:00 -1°C° 0.2 mm 2 m/S 757 mmHg 88%

    übermorgen, 18 Oktober, Freitag

    Zeit Temperatur Niederschläge Wind Luftdruck Luftfeuchtigkeit
    00:00 -1°C° 0.2 mm 2 m/S 756 mmHg 93%
    01:00 -1°C° 0.2 mm 2 m/S 756 mmHg 97%
    02:00 -1°C° 0.3 mm 2 m/S 756 mmHg 97%
    03:00 -1°C° 0.3 mm 2 m/S 755 mmHg 97%
    04:00 -1°C° 0.3 mm 2 m/S 755 mmHg 97%
    05:00 -1°C° 0 mm 2 m/S 755 mmHg 97%
    06:00 +1°C° 0 mm 2 m/S 754 mmHg 97%
    07:00 +2°C° 0 mm 1 m/S 754 mmHg 97%
    08:00 +2°C° 0 mm 1 m/S 754 mmHg 97%
    09:00 +1°C° 0 mm 2 m/S 754 mmHg 97%
    10:00 +1°C° 0 mm 2 m/S 753 mmHg 97%
    11:00 +1°C° 0 mm 2 m/S 753 mmHg 96%
    12:00 +1°C° 0 mm 2 m/S 753 mmHg 96%
    13:00 +1°C° 0 mm 3 m/S 753 mmHg 96%
    14:00 0°C° 0.2 mm 3 m/S 753 mmHg 96%
    15:00 0°C° 0.2 mm 3 m/S 753 mmHg 97%
    16:00 -1°C° 0.2 mm 4 m/S 753 mmHg 97%
    17:00 -1°C° 0.1 mm 4 m/S 754 mmHg 96%
    18:00 -1°C° 0.1 mm 4 m/S 754 mmHg 96%
    19:00 -1°C° 0.1 mm 5 m/S 754 mmHg 96%
    20:00 -1°C° 0 mm 5 m/S 755 mmHg 93%
    21:00 -2°C° 0 mm 5 m/S 756 mmHg 90%
    22:00 -2°C° 0 mm 5 m/S 756 mmHg 88%
    23:00 -2°C° 0 mm 5 m/S 757 mmHg 88%

    19 Oktober, Samstag

    Zeit Temperatur Niederschläge Wind Luftdruck Luftfeuchtigkeit
    00:00 -4°C° 0 mm 5 m/S 757 mmHg 88%
    01:00 -5°C° 0 mm 5 m/S 758 mmHg 88%
    02:00 -4°C° 0 mm 4 m/S 758 mmHg 87%
    03:00 -4°C° 0 mm 4 m/S 759 mmHg 85%
    04:00 -4°C° 0 mm 4 m/S 760 mmHg 84%
    05:00 -5°C° 0 mm 4 m/S 760 mmHg 84%
    06:00 -5°C° 0 mm 4 m/S 760 mmHg 85%
    07:00 -6°C° 0 mm 3 m/S 761 mmHg 85%
    08:00 -5°C° 0 mm 3 m/S 761 mmHg 80%
    09:00 -4°C° 0 mm 4 m/S 762 mmHg 76%
    10:00 -3°C° 0 mm 4 m/S 762 mmHg 71%
    11:00 -2°C° 0 mm 3 m/S 762 mmHg 68%
    12:00 -1°C° 0 mm 3 m/S 763 mmHg 66%
    13:00 -1°C° 0 mm 3 m/S 763 mmHg 63%
    14:00 -1°C° 0 mm 2 m/S 763 mmHg 66%
    15:00 -2°C° 0 mm 2 m/S 763 mmHg 68%
    16:00 -2°C° 0 mm 2 m/S 764 mmHg 71%
    17:00 -1°C° 0 mm 1 m/S 764 mmHg 73%
    18:00 -1°C° 0 mm 1 m/S 764 mmHg 74%
    19:00 -2°C° 0 mm 1 m/S 765 mmHg 76%
    20:00 -2°C° 0 mm 1 m/S 765 mmHg 76%
    21:00 -2°C° 0 mm 1 m/S 765 mmHg 76%
    22:00 -3°C° 0 mm 0 m/S 765 mmHg 76%
    23:00 -2°C° 0 mm 1 m/S 765 mmHg 77%

    20 Oktober, Sonntag

    Zeit Temperatur Niederschläge Wind Luftdruck Luftfeuchtigkeit
    00:00 -2°C° 0 mm 1 m/S 765 mmHg 77%
    01:00 -2°C° 0 mm 1 m/S 765 mmHg 78%
    02:00 -2°C° 0 mm 1 m/S 765 mmHg 79%
    03:00 -4°C° 0 mm 2 m/S 765 mmHg 81%
    04:00 -4°C° 0 mm 2 m/S 765 mmHg 82%
    05:00 -4°C° 0 mm 2 m/S 765 mmHg 83%
    06:00 -4°C° 0 mm 2 m/S 765 mmHg 84%
    07:00 -5°C° 0 mm 3 m/S 765 mmHg 85%
    08:00 -4°C° 0 mm 3 m/S 765 mmHg 79%
    09:00 -3°C° 0 mm 4 m/S 765 mmHg 73%
    10:00 -2°C° 0 mm 5 m/S 765 mmHg 67%
    11:00 -2°C° 0 mm 5 m/S 764 mmHg 66%
    12:00 -1°C° 0 mm 5 m/S 764 mmHg 64%
    13:00 0°C° 0 mm 5 m/S 763 mmHg 62%
    14:00 -1°C° 0 mm 5 m/S 763 mmHg 66%
    15:00 -1°C° 0 mm 5 m/S 763 mmHg 69%
    16:00 -2°C° 0 mm 4 m/S 762 mmHg 73%
    17:00 -2°C° 0 mm 4 m/S 762 mmHg 75%
    18:00 -2°C° 0 mm 4 m/S 762 mmHg 76%
    19:00 -2°C° 0 mm 5 m/S 762 mmHg 78%
    20:00 -2°C° 0 mm 5 m/S 761 mmHg 79%
    21:00 -2°C° 0 mm 5 m/S 761 mmHg 81%
    22:00 -2°C° 0 mm 5 m/S 760 mmHg 82%
    23:00 -2°C° 0 mm 5 m/S 760 mmHg 82%

    21 Oktober, Montag

    Zeit Temperatur Niederschläge Wind Luftdruck Luftfeuchtigkeit
    00:00 -2°C° 0 mm 5 m/S 759 mmHg 81%
    01:00 -2°C° 0 mm 5 m/S 759 mmHg 81%
    02:00 -2°C° 0.2 mm 5 m/S 759 mmHg 84%
    03:00 -2°C° 0.2 mm 5 m/S 758 mmHg 88%
    04:00 -2°C° 0.2 mm 5 m/S 758 mmHg 92%
    05:00 -1°C° 0.7 mm 5 m/S 758 mmHg 94%
    06:00 -1°C° 0.7 mm 5 m/S 757 mmHg 96%
    07:00 0°C° 0.7 mm 4 m/S 757 mmHg 97%
    08:00 0°C° 0.1 mm 4 m/S 757 mmHg 97%
    09:00 +1°C° 0.1 mm 3 m/S 757 mmHg 97%
    10:00 +2°C° 0.1 mm 3 m/S 757 mmHg 97%
    11:00 +2°C° 0 mm 3 m/S 758 mmHg 94%
    12:00 +4°C° 0 mm 2 m/S 758 mmHg 92%
    13:00 +5°C° 0 mm 2 m/S 758 mmHg 90%
    14:00 +4°C° 0 mm 2 m/S 758 mmHg 91%
    15:00 +4°C° 0 mm 2 m/S 758 mmHg 92%
    16:00 +3°C° 0 mm 2 m/S 759 mmHg 93%
    17:00 +3°C° 0 mm 2 m/S 759 mmHg 92%
    18:00 +3°C° 0 mm 1 m/S 759 mmHg 92%
    19:00 +3°C° 0 mm 1 m/S 759 mmHg 92%
    20:00 +3°C° 0 mm 1 m/S 759 mmHg 92%
    21:00 +3°C° 0 mm 1 m/S 759 mmHg 92%
    22:00 +3°C° 0 mm 1 m/S 759 mmHg 91%
    23:00 +2°C° 0 mm 1 m/S 759 mmHg 92%
    Mehr zeigen